• en Suisse
  • Liste des pays
  • À 7 jours
  • Température de l'eau
  • Carte satellitaire
  • Carte météo
  • Widgets météo
  • user-avatar
    Se connecter

    Météo par heure à Ajman

    Ce jour, 20 Octobre, Samedi

    Heure Température Précipitation Vent Pression Humidité
    00:00 +31°C° 0 mm 1 m/s 760 mmHg 54%
    01:00 +31°C° 0 mm 1 m/s 759 mmHg 55%
    02:00 +30°C° 0 mm 1 m/s 759 mmHg 56%
    03:00 +30°C° 0 mm 1 m/s 759 mmHg 57%
    04:00 +30°C° 0 mm 2 m/s 759 mmHg 56%
    05:00 +30°C° 0 mm 2 m/s 760 mmHg 54%
    06:00 +31°C° 0 mm 2 m/s 760 mmHg 53%
    07:00 +31°C° 0 mm 2 m/s 761 mmHg 52%
    08:00 +33°C° 0 mm 3 m/s 761 mmHg 47%
    09:00 +34°C° 0 mm 3 m/s 761 mmHg 43%
    10:00 +36°C° 0 mm 3 m/s 761 mmHg 39%
    11:00 +36°C° 0.4 mm 3 m/s 761 mmHg 38%
    12:00 +37°C° 0.4 mm 3 m/s 760 mmHg 36%
    13:00 +37°C° 0.4 mm 2 m/s 760 mmHg 35%
    14:00 +37°C° 0 mm 3 m/s 760 mmHg 36%
    15:00 +37°C° 0 mm 3 m/s 760 mmHg 36%
    16:00 +37°C° 0 mm 4 m/s 759 mmHg 37%
    17:00 +36°C° 0 mm 3 m/s 760 mmHg 40%
    18:00 +35°C° 0 mm 3 m/s 760 mmHg 43%
    19:00 +34°C° 0 mm 3 m/s 760 mmHg 46%
    20:00 +34°C° 0 mm 3 m/s 760 mmHg 48%
    21:00 +34°C° 0 mm 2 m/s 760 mmHg 50%
    22:00 +32°C° 0 mm 2 m/s 760 mmHg 52%
    23:00 +32°C° 0 mm 2 m/s 760 mmHg 54%

    Demain, 21 Octobre, Dimanche

    Heure Température Précipitation Vent Pression Humidité
    00:00 +32°C° 0 mm 2 m/s 760 mmHg 56%
    01:00 +31°C° 0 mm 2 m/s 760 mmHg 58%
    02:00 +31°C° 0 mm 2 m/s 760 mmHg 57%
    03:00 +31°C° 0 mm 2 m/s 760 mmHg 57%
    04:00 +31°C° 0 mm 2 m/s 760 mmHg 56%
    05:00 +31°C° 0 mm 2 m/s 760 mmHg 54%
    06:00 +31°C° 0 mm 2 m/s 760 mmHg 52%
    07:00 +33°C° 0 mm 3 m/s 761 mmHg 50%
    08:00 +33°C° 0 mm 3 m/s 761 mmHg 48%
    09:00 +34°C° 0 mm 3 m/s 761 mmHg 46%
    10:00 +34°C° 0 mm 3 m/s 762 mmHg 44%
    11:00 +35°C° 0 mm 3 m/s 761 mmHg 43%
    12:00 +36°C° 0 mm 2 m/s 761 mmHg 41%
    13:00 +37°C° 0 mm 2 m/s 761 mmHg 40%
    14:00 +37°C° 0 mm 2 m/s 760 mmHg 38%
    15:00 +37°C° 0 mm 3 m/s 760 mmHg 36%
    16:00 +37°C° 0 mm 3 m/s 760 mmHg 34%
    17:00 +36°C° 0 mm 3 m/s 760 mmHg 38%
    18:00 +35°C° 0 mm 3 m/s 760 mmHg 43%
    19:00 +34°C° 0 mm 3 m/s 760 mmHg 47%
    20:00 +34°C° 0 mm 3 m/s 761 mmHg 50%
    21:00 +32°C° 0 mm 2 m/s 761 mmHg 53%
    22:00 +32°C° 0 mm 2 m/s 761 mmHg 56%
    23:00 +32°C° 0 mm 2 m/s 761 mmHg 57%

    Après-demain, 22 Octobre, Lundi

    Heure Température Précipitation Vent Pression Humidité
    00:00 +31°C° 0 mm 2 m/s 761 mmHg 57%
    01:00 +31°C° 0 mm 2 m/s 761 mmHg 58%
    02:00 +31°C° 0 mm 2 m/s 761 mmHg 58%
    03:00 +30°C° 0 mm 1 m/s 760 mmHg 59%
    04:00 +30°C° 0 mm 1 m/s 760 mmHg 59%
    05:00 +30°C° 0 mm 1 m/s 761 mmHg 57%
    06:00 +30°C° 0 mm 1 m/s 761 mmHg 55%
    07:00 +31°C° 0 mm 1 m/s 761 mmHg 54%
    08:00 +32°C° 0 mm 2 m/s 762 mmHg 48%
    09:00 +35°C° 0 mm 3 m/s 762 mmHg 43%
    10:00 +36°C° 0 mm 3 m/s 762 mmHg 37%
    11:00 +37°C° 0 mm 3 m/s 762 mmHg 36%
    12:00 +38°C° 0 mm 4 m/s 761 mmHg 34%
    13:00 +38°C° 0 mm 4 m/s 761 mmHg 33%
    14:00 +38°C° 0 mm 4 m/s 760 mmHg 36%
    15:00 +37°C° 0 mm 4 m/s 760 mmHg 39%
    16:00 +36°C° 0 mm 5 m/s 760 mmHg 41%
    17:00 +35°C° 0 mm 4 m/s 760 mmHg 46%
    18:00 +34°C° 0 mm 4 m/s 760 mmHg 51%
    19:00 +33°C° 0 mm 3 m/s 760 mmHg 56%
    20:00 +33°C° 0 mm 3 m/s 760 mmHg 57%
    21:00 +31°C° 0 mm 3 m/s 761 mmHg 59%
    22:00 +31°C° 0 mm 3 m/s 761 mmHg 60%
    23:00 +30°C° 0 mm 2 m/s 760 mmHg 60%

    23 Octobre, Mardi

    Heure Température Précipitation Vent Pression Humidité
    00:00 +30°C° 0 mm 2 m/s 760 mmHg 60%
    01:00 +29°C° 0 mm 1 m/s 760 mmHg 59%
    02:00 +29°C° 0 mm 2 m/s 760 mmHg 59%
    03:00 +29°C° 0 mm 2 m/s 759 mmHg 59%
    04:00 +29°C° 0 mm 2 m/s 759 mmHg 59%
    05:00 +29°C° 0 mm 3 m/s 759 mmHg 59%
    06:00 +29°C° 0 mm 3 m/s 760 mmHg 59%
    07:00 +29°C° 0 mm 3 m/s 760 mmHg 60%
    08:00 +32°C° 0 mm 4 m/s 760 mmHg 57%
    09:00 +33°C° 0 mm 4 m/s 761 mmHg 54%
    10:00 +34°C° 0 mm 4 m/s 761 mmHg 51%
    11:00 +35°C° 0 mm 5 m/s 761 mmHg 49%
    12:00 +36°C° 0 mm 5 m/s 760 mmHg 47%
    13:00 +38°C° 0 mm 6 m/s 759 mmHg 45%
    14:00 +38°C° 0 mm 7 m/s 759 mmHg 46%
    15:00 +36°C° 0 mm 7 m/s 759 mmHg 47%
    16:00 +36°C° 0 mm 7 m/s 759 mmHg 48%
    17:00 +35°C° 0 mm 7 m/s 759 mmHg 52%
    18:00 +34°C° 0 mm 6 m/s 759 mmHg 56%
    19:00 +34°C° 0 mm 6 m/s 759 mmHg 60%
    20:00 +33°C° 0 mm 5 m/s 759 mmHg 62%
    21:00 +33°C° 0 mm 5 m/s 759 mmHg 64%
    22:00 +33°C° 0 mm 4 m/s 760 mmHg 66%
    23:00 +32°C° 0 mm 4 m/s 759 mmHg 67%

    24 Octobre, Mercredi

    Heure Température Précipitation Vent Pression Humidité
    00:00 +32°C° 0 mm 4 m/s 759 mmHg 68%
    01:00 +31°C° 0 mm 3 m/s 758 mmHg 70%
    02:00 +31°C° 0 mm 3 m/s 758 mmHg 70%
    03:00 +30°C° 0 mm 4 m/s 758 mmHg 71%
    04:00 +30°C° 0 mm 4 m/s 758 mmHg 71%
    05:00 +30°C° 0 mm 4 m/s 758 mmHg 70%
    06:00 +30°C° 0 mm 4 m/s 758 mmHg 69%
    07:00 +30°C° 0 mm 4 m/s 759 mmHg 69%
    08:00 +33°C° 0 mm 4 m/s 759 mmHg 62%
    09:00 +34°C° 0 mm 5 m/s 759 mmHg 56%
    10:00 +36°C° 0 mm 5 m/s 759 mmHg 49%
    11:00 +38°C° 0 mm 6 m/s 759 mmHg 44%
    12:00 +38°C° 0 mm 6 m/s 758 mmHg 39%
    13:00 +39°C° 0 mm 7 m/s 758 mmHg 34%
    14:00 +38°C° 0 mm 7 m/s 757 mmHg 36%
    15:00 +38°C° 0 mm 7 m/s 757 mmHg 37%
    16:00 +36°C° 0 mm 7 m/s 757 mmHg 39%
    17:00 +35°C° 0 mm 6 m/s 757 mmHg 45%
    18:00 +34°C° 0 mm 5 m/s 757 mmHg 50%
    19:00 +33°C° 0 mm 5 m/s 758 mmHg 56%
    20:00 +33°C° 0 mm 4 m/s 758 mmHg 58%
    21:00 +32°C° 0 mm 4 m/s 758 mmHg 60%
    22:00 +32°C° 0 mm 4 m/s 759 mmHg 62%
    23:00 +31°C° 0 mm 3 m/s 758 mmHg 64%

    25 Octobre, Jeudi

    Heure Température Précipitation Vent Pression Humidité
    00:00 +30°C° 0 mm 3 m/s 758 mmHg 65%
    01:00 +30°C° 0 mm 3 m/s 757 mmHg 67%
    02:00 +30°C° 0 mm 3 m/s 757 mmHg 68%
    03:00 +29°C° 0 mm 2 m/s 757 mmHg 69%
    04:00 +29°C° 0 mm 2 m/s 757 mmHg 70%
    05:00 +29°C° 0 mm 2 m/s 758 mmHg 68%
    06:00 +29°C° 0 mm 2 m/s 758 mmHg 66%
    07:00 +30°C° 0 mm 3 m/s 758 mmHg 64%
    08:00 +31°C° 0 mm 3 m/s 759 mmHg 59%
    09:00 +33°C° 0 mm 3 m/s 759 mmHg 53%
    10:00 +35°C° 0 mm 3 m/s 759 mmHg 48%
    11:00 +35°C° 0 mm 4 m/s 759 mmHg 45%
    12:00 +36°C° 0 mm 4 m/s 758 mmHg 43%
    13:00 +37°C° 0 mm 5 m/s 758 mmHg 40%
    14:00 +36°C° 0 mm 5 m/s 758 mmHg 41%
    15:00 +36°C° 0 mm 4 m/s 758 mmHg 43%
    16:00 +36°C° 0 mm 4 m/s 757 mmHg 44%
    17:00 +35°C° 0 mm 4 m/s 758 mmHg 49%
    18:00 +34°C° 0 mm 3 m/s 758 mmHg 54%
    19:00 +32°C° 0 mm 2 m/s 758 mmHg 59%
    20:00 +31°C° 0 mm 2 m/s 759 mmHg 60%
    21:00 +31°C° 0 mm 1 m/s 759 mmHg 62%
    22:00 +30°C° 0 mm 1 m/s 759 mmHg 64%
    23:00 +30°C° 0 mm 1 m/s 759 mmHg 64%
    Voir plus